Terminal Aerodrome Forecast
Issued by NWS

Home | Current Version | Previous Version | Text Only | Print | Product List | Glossary On
Versions: 1 2 3 4 5 6 7 8 9 10 11 12 13 14 15 16 17 18 19 20 21 22 23 24 25 26 27 28 29
000
FTUS41 KOKX 281132
TAFSWF
TAF
KSWF 281132Z 2812/0118 VRB02KT P6SM OVC070
     FM281500 09004KT P6SM SCT080
     FM281700 15005KT P6SM SCT025 SCT200
     FM282200 13006KT P6SM BKN040 BKN110
     FM010000 14006KT 5SM BR BKN007 OVC040
     FM010200 15006KT 3SM -RA BR BKN006 OVC010
     FM010500 16004KT 1SM RA BR OVC004
     FM010800 19005KT 3SM BR OVC004
     FM011500 21014G22KT 5SM BR OVC010 PROB30 0115/0117 2SM RA
      AMD NOT SKED=

USA.gov is the U.S. government's official web portal to all federal, state and local government web resources and services.